• Join FlightAware (Why Join?)
  • Login
  • US Flag 
10:06PM EST


 

Airport Tracker/Info


-or-


 

Live Flight TrackerFlight Track Log ✈ SCX8701 ✈ 21-Feb-2014 ✈ KABE - KPIE

Flight Track Log - Related Links

Times and Time Zones

All times are in EST time to prevent confusion due to time zone crossing. See the SCX8701 flight status page for this flight to view local times or setup timezone preferences in your user account.

Time Position Orientation Groundspeed Altitude Reporting Facility
EST Latitude Longitude Course Direction KTS MPH feet Rate Location/Type
08:58PM 40.6323 -75.4745 230° Southwest 175 201 2,100  Level FlightAware ADS-B (KWWD)
08:58PM 40.6132 -75.5072 232° Southwest 203 234 3,200 2,640 Climbing FlightAware ADS-B (KWWD)
08:59PM 40.5991 -75.5840 256° West 223 257 6,300 2,460 Climbing FlightAware ADS-B (KWWD)
09:00PM 40.5931 -75.6179 257° West 225 259 6,800 1,020 Climbing FlightAware ADS-B (KWWD)
09:00PM 40.5883 -75.6440 256° West 230 265 7,100 420 Climbing FlightAware ADS-B (KWWD)
09:00PM 40.5832 -75.6713 256° West 229 264 7,100  Level FlightAware ADS-B (KWWD)
09:01PM 40.5797 -75.6820 247° West 227 261 7,100  Level FlightAware ADS-B (KWWD)
09:01PM 40.5757 -75.6906 239° Southwest 234 269 7,100  Level FlightAware ADS-B (KWWD)
09:01PM 40.5579 -75.7152 226° Southwest 230 265 7,100 300 Level FlightAware ADS-B (KWWD)
09:01PM 40.5426 -75.7353 225° Southwest 236 272 7,300 900 Climbing FlightAware ADS-B (KWWD)
09:02PM 40.5271 -75.7560 225° Southwest 234 269 7,700 900 Climbing FlightAware ADS-B (KWWD)
09:02PM 40.5114 -75.7769 225° Southwest 237 273 7,900 840 Climbing FlightAware ADS-B (KWWD)
09:02PM 40.4953 -75.7982 225° Southwest 234 269 8,300 1,920 Climbing FlightAware ADS-B (KWWD)
09:04PM 40.4402 -75.8712 225° Southwest 279 321 10,900 2,220 Climbing FlightAware ADS-B (KWWD)
09:04PM 40.4002 -75.9245 225° Southwest 300 345 12,400 2,280 Climbing FlightAware ADS-B (KWWD)
09:05PM 40.3680 -75.9617 221° Southwest 317 365 13,600 2,460 Climbing FlightAware ADS-B (KWWD)
09:05PM 40.3290 -75.9855 205° Southwest 318 366 15,000 2,640 Climbing FlightAware ADS-B (KPVU)
09:06PM 40.2718 -76.0181 203° Southwest 334 384 16,700 2,520 Climbing FlightAware ADS-B (KWWD)
09:06PM 40.2230 -76.0447 203° Southwest 334 384 18,100 2,280 Climbing FlightAware ADS-B (KWWD)
09:07PM 40.1883 -76.0631 202° Southwest 335 386 18,900 1,680 Climbing FlightAware ADS-B (KWWD)
09:07PM 40.1747 -76.0703 202° Southwest 336 387 19,000 120 Climbing FlightAware ADS-B (KWWD)
09:07PM 40.1400 -76.0895 203° Southwest 331 381 19,000  Level FlightAware ADS-B (KWWD)
09:08PM 40.1135 -76.1113 212° Southwest 326 375 19,000 1,080 Level FlightAware ADS-B (KWWD)
09:08PM 40.0790 -76.1469 218° Southwest 333 383 19,900 1,980 Climbing FlightAware ADS-B (KWWD)
09:09PM 40.0406 -76.1861 218° Southwest 330 380 21,000 1,980 Climbing FlightAware ADS-B (KWWD)
09:09PM 40.0101 -76.2169 218° Southwest 334 384 21,800 1,860 Climbing FlightAware ADS-B (KWWD)
09:09PM 40.0016 -76.2255 218° Southwest 334 384 22,000 1,860 Climbing FlightAware ADS-B (KWWD)
09:10PM 39.9169 -76.3114 218° Southwest 350 403 24,100 1,740 Climbing FlightAware ADS-B (KWWD)
09:11PM 39.8790 -76.3498 218° Southwest 348 400 24,900 1,500 Climbing FlightAware ADS-B (KWWD)
09:11PM 39.8379 -76.3913 218° Southwest 359 413 25,700 1,560 Climbing FlightAware ADS-B (KAPG)
09:12PM 39.8237 -76.4057 218° Southwest 352 405 26,000 1,680 Climbing FlightAware ADS-B (KWWD)
09:12PM 39.7930 -76.4367 218° Southwest 355 409 26,600 1,260 Climbing FlightAware ADS-B (KWWD)
09:13PM 39.7550 -76.4750 218° Southwest 365 420 27,200 1,440 Climbing FlightAware ADS-B
09:13PM 39.7054 -76.5249 218° Southwest 365 420 28,200 1,680 Climbing FlightAware ADS-B (KWWD)
09:14PM 39.6655 -76.5651 218° Southwest 363 418 29,000 1,560 Climbing FlightAware ADS-B (KWWD)
09:14PM 39.6254 -76.6053 218° Southwest 354 407 29,800 1,620 Climbing FlightAware ADS-B (KWWD)
09:15PM 39.5866 -76.6441 218° Southwest 359 413 30,700 1,500 Climbing FlightAware ADS-B (KAPG)
09:15PM 39.5484 -76.6824 218° Southwest 356 410 31,500 1,440 Climbing FlightAware ADS-B
09:16PM 39.5080 -76.7231 218° Southwest 347 399 32,100 1,500 Climbing FlightAware ADS-B (KWWD)
09:16PM 39.4882 -76.7525 229° Southwest 344 396 32,600 1,320 Climbing FlightAware ADS-B (KWWD)
09:16PM 39.4719 -76.7781 230° Southwest 344 396 32,900 1,380 Climbing FlightAware ADS-B (KWWD)
09:16PM 39.4645 -76.7895 230° Southwest 350 403 33,200 960 Climbing FlightAware ADS-B
09:17PM 39.4324 -76.8402 231° Southwest 349 402 33,600 900 Climbing FlightAware ADS-B
09:17PM 39.4156 -76.8672 231° Southwest 345 397 33,900 1,200 Climbing FlightAware ADS-B (KWWD)
09:17PM 39.4091 -76.8778 232° Southwest 345 397 34,000 960 Climbing FlightAware ADS-B (KWWD)
09:18PM 39.3824 -76.9208 231° Southwest 351 404 34,500 1,020 Climbing FlightAware ADS-B
09:18PM 39.3686 -76.9429 231° Southwest 347 399 34,700 1,140 Climbing FlightAware ADS-B (KWWD)
09:18PM 39.3512 -76.9706 231° Southwest 346 398 35,000 780 Climbing FlightAware ADS-B (KWWD)
09:19PM 39.3211 -77.0188 231° Southwest 349 402 35,400 720 Climbing FlightAware ADS-B
09:19PM 39.3030 -77.0465 230° Southwest 352 405 35,600 480 Climbing FlightAware ADS-B (KWWD)
09:19PM 39.2770 -77.0754 221° Southwest 363 418 35,700 480 Climbing FlightAware ADS-B (KWWD)
09:20PM 39.2563 -77.0944 215° Southwest 358 412 35,900 780 Climbing FlightAware ADS-B (KWWD)
09:20PM 39.2543 -77.0964 216° Southwest 364 419 36,000 120 Climbing FlightAware ADS-B
09:20PM 39.2121 -77.1357 216° Southwest 368 423 36,000  Level FlightAware ADS-B
09:21PM 39.1560 -77.1893 217° Southwest 366 421 36,000  Level FlightAware ADS-B
09:21PM 39.1150 -77.2285 217° Southwest 365 420 36,000  Level FlightAware ADS-B
09:22PM 39.0606 -77.2798 216° Southwest 362 417 36,000  Level FlightAware ADS-B
09:23PM 39.0461 -77.2935 216° Southwest 361 415 36,000  Level FlightAware ADS-B
09:24PM 38.9009 -77.4296 216° Southwest 359 413 36,000  Level FlightAware ADS-B (KWWD)
09:25PM 38.8466 -77.4805 216° Southwest 360 414 36,000  Level FlightAware ADS-B (KWWD)
09:25PM 38.7989 -77.5251 216° Southwest 364 419 36,000  Level FlightAware ADS-B (KWWD)
09:27PM 38.6443 -77.6694 216° Southwest 364 419 36,000  Level FlightAware ADS-B (KWWD)
09:32PM 38.2018 -78.0763 216° Southwest 375 432 36,000  Level FlightAware ADS-B (KWWD)
09:34PM 38.1040 -78.1654 216° Southwest 371 427 36,000  Level FlightAware ADS-B (KCHO)
09:34PM 38.0538 -78.2111 216° Southwest 369 425 36,000  Level FlightAware ADS-B (KCHO)
09:35PM 37.9963 -78.2634 216° Southwest 366 421 36,000  Level FlightAware ADS-B (KCHO)
09:36PM 37.9720 -78.2855 216° Southwest 365 420 36,000  Level FlightAware ADS-B (KCHO)
09:37PM 37.8355 -78.4088 216° Southwest 366 421 36,000  Level FlightAware ADS-B (KCHO)
09:37PM 37.8151 -78.4272 215° Southwest 367 422 36,000  Level FlightAware ADS-B (KCHO)
09:38PM 37.7365 -78.4981 215° Southwest 368 423 36,000  Level FlightAware ADS-B (KCHO)
09:40PM 37.5569 -78.6587 215° Southwest 369 425 36,000  Level FlightAware ADS-B (KCHO)
09:41PM 37.5149 -78.6964 215° Southwest 372 428 36,000  Level FlightAware ADS-B (KCHO)
09:42PM 37.4304 -78.7717 215° Southwest 374 430 36,000  Level FlightAware ADS-B (KCHO)
09:43PM 37.3651 -78.8296 215° Southwest 375 432 36,000  Level FlightAware ADS-B (KCHO)
09:43PM 37.3086 -78.8792 215° Southwest 369 425 36,000  Level Washington Center
09:50PM 36.7656 -79.3566 215° Southwest 375 432 36,000  Level FlightAware ADS-B (KWWD)
09:51PM 36.6525 -79.4511 215° Southwest 381 438 36,000  Level Atlanta Center
09:52PM 36.5697 -79.5256 216° Southwest 376 433 36,000  Level Atlanta Center
09:53PM 36.4867 -79.5947 214° Southwest 376 433 36,000  Level Atlanta Center
09:54PM 36.3936 -79.6747 215° Southwest 371 427 36,000  Level Atlanta Center
09:55PM 36.3106 -79.7461 215° Southwest 366 421 36,000  Level Atlanta Center
09:56PM 36.2319 -79.8200 217° Southwest 373 429 36,000  Level Atlanta Center
09:57PM 36.1444 -79.8861 211° Southwest 368 423 36,000 300 Level Atlanta Center
09:58PM 36.0694 -79.9517 215° Southwest 380 437 36,700 480 Climbing Atlanta Center
09:59PM 35.9775 -80.0078 206° Southwest 373 429 37,000 120 Climbing Atlanta Center
10:00PM 35.8831 -80.0586 204° Southwest 373 429 37,000  Level Atlanta Center
10:01PM 35.7844 -80.1042 201° Southwest 378 435 37,000  Level Atlanta Center
10:02PM 35.6758 -80.1606 203° Southwest 378 435 37,000  Level Atlanta Center
10:03PM 35.5753 -80.2139 203° Southwest 389 448 37,000  Level Atlanta Center
10:04PM 35.4808 -80.2617 202° Southwest 384 442 37,000  Level Atlanta Center
10:05PM 35.3861 -80.3067 201° Southwest 384 442 37,000  Level Atlanta Center
10:06PM 35.2894 -80.3544 202° Southwest 379 436 37,000 -180 Level Atlanta Center
10:12PM 34.7180 -80.6375 202° Southwest 382 440 36,000 -180 Descending FlightAware ADS-B (KCDN)
10:13PM 34.6429 -80.6741 202° Southwest 384 442 36,000  Level FlightAware ADS-B (KCDN)
10:13PM 34.5700 -80.7097 202° Southwest 384 442 36,000  Level FlightAware ADS-B (KCDN)
10:14PM 34.5083 -80.7398 202° Southwest 384 442 36,000  Level FlightAware ADS-B (KCDN)
10:14PM 34.4555 -80.7655 202° Southwest 383 441 36,000  Level FlightAware ADS-B (KCDN)
10:15PM 34.3991 -80.7930 202° Southwest 383 441 36,000  Level FlightAware ADS-B (KCDN)
10:16PM 34.3238 -80.8295 202° Southwest 384 442 36,000  Level FlightAware ADS-B (KCDN)
10:16PM 34.2554 -80.8625 202° Southwest 382 440 36,000  Level FlightAware ADS-B (KCDN)
10:17PM 34.2012 -80.8886 202° Southwest 382 440 36,000  Level FlightAware ADS-B (KCDN)
10:18PM 34.1497 -80.9135 202° Southwest 381 438 36,000  Level FlightAware ADS-B (KCDN)
10:18PM 34.1011 -80.9369 202° Southwest 380 437 36,000  Level FlightAware ADS-B (KCDN)
10:19PM 34.0514 -80.9608 202° Southwest 378 435 36,000  Level FlightAware ADS-B (KCDN)
10:19PM 33.9943 -80.9883 202° Southwest 376 433 36,000  Level FlightAware ADS-B (KCDN)
10:20PM 33.9322 -81.0181 202° Southwest 376 433 36,000  Level FlightAware ADS-B (KCDN)
10:20PM 33.8690 -81.0483 202° Southwest 377 434 36,000  Level FlightAware ADS-B (KCDN)
10:21PM 33.8094 -81.0775 202° Southwest 377 434 36,000  Level FlightAware ADS-B (KCDN)
10:22PM 33.7614 -81.1015 203° Southwest 378 435 36,000  Level FlightAware ADS-B (KCDN)
10:22PM 33.6888 -81.1375 202° Southwest 377 434 36,000  Level FlightAware ADS-B (KCDN)
10:23PM 33.6161 -81.1792 202° Southwest 382 440 36,000  Level Jacksonville Center
10:24PM 33.5167 -81.2258 201° Southwest 382 440 36,000  Level Jacksonville Center
10:25PM 33.4192 -81.2750 203° Southwest 382 440 36,000  Level Jacksonville Center
10:26PM 33.3217 -81.3192 201° Southwest 382 440 36,000  Level Jacksonville Center
10:27PM 33.2136 -81.3731 203° Southwest 382 440 36,000  Level Jacksonville Center
10:28PM 33.1244 -81.4167 202° Southwest 382 440 36,000  Level Jacksonville Center
10:29PM 33.0247 -81.4631 201° Southwest 387 445 36,000  Level Jacksonville Center
10:30PM 32.9253 -81.5142 203° Southwest 387 445 36,000  Level Jacksonville Center
10:31PM 32.8256 -81.5625 202° Southwest 387 445 36,000  Level Jacksonville Center
10:32PM 32.7278 -81.6108 203° Southwest 387 445 36,000  Level Jacksonville Center
10:33PM 32.6281 -81.6592 202° Southwest 387 445 36,000  Level Jacksonville Center
10:34PM 32.5158 -81.7100 201° Southwest 392 451 36,000  Level Jacksonville Center
10:35PM 32.4203 -81.7408 195° South 392 451 36,000  Level Jacksonville Center
10:36PM 32.2994 -81.7669 190° South 398 458 36,000  Level Jacksonville Center
10:37PM 32.1889 -81.7903 190° South 404 465 36,000  Level Jacksonville Center
10:38PM 32.0889 -81.8136 191° South 411 473 36,000  Level Jacksonville Center
10:39PM 31.9700 -81.8394 190° South 411 473 36,000  Level Jacksonville Center
10:40PM 31.8722 -81.8628 191° South 411 473 36,000  Level Jacksonville Center
10:41PM 31.7514 -81.8883 190° South 411 473 36,000  Level Jacksonville Center
10:42PM 31.6386 -81.9117 190° South 411 473 36,000  Level Jacksonville Center
10:43PM 31.5408 -81.9344 191° South 412 474 36,000  Level Jacksonville Center
10:44PM 31.4156 -81.9628 191° South 412 474 36,000  Level Jacksonville Center
10:45PM 31.3136 -81.9881 192° South 417 480 36,000  Level Jacksonville Center
10:46PM 31.2008 -82.0108 190° South 417 480 36,000  Level Jacksonville Center
10:47PM 31.0906 -82.0386 192° South 412 474 36,000  Level Jacksonville Center
10:53PM 30.4212 -82.1794 192° South 410 472 36,000  Level FlightAware ADS-B (KMCO)
10:54PM 30.3506 -82.1947 191° South 409 471 36,000  Level FlightAware ADS-B (KMCO)
10:54PM 30.2904 -82.2077 191° South 409 471 36,000  Level FlightAware ADS-B (KMCO)
10:55PM 30.2365 -82.2194 191° South 410 472 36,000  Level FlightAware ADS-B (KMCO)
10:55PM 30.1784 -82.2319 191° South 411 473 36,000  Level FlightAware ADS-B (KMCO)
10:56PM 30.1028 -82.2482 191° South 411 473 36,000 -780 Level FlightAware ADS-B (KMCO)
10:57PM 30.0087 -82.2684 191° South 403 464 34,900 -1,680 Descending FlightAware ADS-B (KMCO)
10:57PM 29.9536 -82.2804 191° South 397 457 33,800 -2,100 Descending FlightAware ADS-B (KMCO)
10:58PM 29.9001 -82.2919 191° South 392 451 32,800 -1,980 Descending FlightAware ADS-B (KMCO)
10:58PM 29.8463 -82.3034 191° South 387 445 31,800 -2,040 Descending FlightAware ADS-B (KMCO)
10:59PM 29.7918 -82.3151 191° South 383 441 30,700 -2,100 Descending FlightAware ADS-B (KMCO)
10:59PM 29.7403 -82.3262 191° South 378 435 29,700 -1,920 Descending FlightAware ADS-B (KMCO)
11:00PM 29.6737 -82.3405 191° South 372 428 28,500 -1,920 Descending FlightAware ADS-B (KMCO)
11:00PM 29.6215 -82.3516 190° South 368 423 27,500 -1,560 Descending FlightAware ADS-B (KMCO)
11:01PM 29.5708 -82.3561 184° South 375 432 27,000 -1,020 Descending FlightAware ADS-B (KMCO)
11:01PM 29.5173 -82.3508 175° South 384 442 26,500 -1,020 Descending FlightAware ADS-B (KMCO)
11:02PM 29.4617 -82.3443 174° South 387 445 26,000 -960 Descending FlightAware ADS-B (KMCO)
11:03PM 29.3936 -82.3360 174° South 385 443 25,400 -1,680 Descending FlightAware ADS-B (KMCO)
11:03PM 29.3377 -82.3293 174° South 388 447 24,100 -2,700 Descending FlightAware ADS-B (KMCO)
11:04PM 29.2696 -82.3211 174° South 394 453 22,300 -2,760 Descending FlightAware ADS-B (KMCO)
11:04PM 29.2127 -82.3141 174° South 399 459 20,900 -2,280 Descending FlightAware ADS-B (KMCO)
11:05PM 29.1325 -82.3046 174° South 386 444 19,500 -1,860 Descending FlightAware ADS-B (KMCO)
11:06PM 29.0532 -82.2952 174° South 373 429 18,200 -1,800 Descending FlightAware ADS-B (KMCO)
11:06PM 29.0026 -82.2891 174° South 366 421 17,200 -1,860 Descending FlightAware ADS-B (KMCO)
11:07PM 28.9396 -82.2816 174° South 359 413 16,100 -1,800 Descending FlightAware ADS-B (KMCO)
11:07PM 28.8916 -82.2761 174° South 352 405 15,100 -1,740 Descending FlightAware ADS-B (KMCO)
11:08PM 28.8255 -82.2682 174° South 343 395 14,000 -1,620 Descending FlightAware ADS-B (KMCO)
11:09PM 28.7650 -82.2610 174° South 335 386 13,100 -1,020 Descending FlightAware ADS-B (KMCO)
11:09PM 28.7179 -82.2577 176° South 302 348 12,900 -180 Descending FlightAware ADS-B (KMCO)
11:10PM 28.6344 -82.2564 179° South 292 336 12,900 -480 Level FlightAware ADS-B (KMCO)
11:11PM 28.5964 -82.2681 195° South 281 323 12,200 -1,440 Descending FlightAware ADS-B (KMCO)
11:11PM 28.5878 -82.2802 231° Southwest 281 323 12,000 -1,320 Descending FlightAware ADS-B (KMCO)
11:12PM 28.5667 -82.3500 231° Southwest 278 320 10,900 -1,080 Descending Tampa TRACON
11:13PM 28.5333 -82.4333 246° West 274 315 10,000 -1,020 Descending Tampa TRACON
11:14PM 28.5167 -82.5000 254° West 263 303 9,000 -1,320 Descending Tampa TRACON
11:15PM 28.4833 -82.5667 240° Southwest 250 288 7,700 -1,260 Descending Tampa TRACON
11:16PM 28.4333 -82.6167 221° Southwest 248 285 6,400 -1,140 Descending Tampa TRACON
11:17PM 28.3667 -82.6333 192° South 248 285 5,500 -960 Descending Tampa TRACON
11:18PM 28.3000 -82.6667 204° Southwest 248 285 4,500 -960 Descending Tampa TRACON
11:19PM 28.2333 -82.6833 192° South 248 285 3,600 -480 Descending Tampa TRACON
11:20PM 28.1667 -82.7000 192° South 234 269 3,600  Level Tampa TRACON
11:21PM 28.1000 -82.7167 192° South 184 212 3,600 -540 Level Tampa TRACON
11:22PM 28.0500 -82.7167 180° South 194 223 2,500 -1,020 Descending Tampa TRACON
11:23PM 28.0000 -82.7000 164° South 158 182 1,600 -900 Descending Tampa TRACON
11:24PM 27.9667 -82.7000 180° South 137 158 900 -780 Descending Tampa TRACON
11:25PM 27.9333 -82.7000 180° South 142 163 200 -720 Descending Tampa TRACON
11:27PM 27.9100 -82.6875 180° South  Level Estimated
11:34PM 27.9100 -82.6875 180° South  Level Estimated